EW9808 Weather Reports


time (UTC)temp
F
wind
direction
speed
knots
gust
knots
rain 1hr
in
rain 24hr
in
rain mn
in
humidity
%
barometer
mb
20260507191542 60 19 9.6 19.1 0.00 0.19 0.00 36 1004.6
20260507190037 60 349 6.1 18.2 0.00 0.19 0.00 35 1004.8
20260507184532 60 35 5.2 15.6 0.00 0.19 0.00 36 1004.9
20260507183058 60 31 7.8 20.0 0.00 0.20 0.00 34 1005.2
20260507181554 60 339 7.8 21.7 0.00 0.20 0.00 34 1005.3
20260507180048 60 11 7.0 13.9 0.00 0.20 0.00 36 1005.4
20260507174547 61 317 9.6 15.6 0.00 0.20 0.00 35 1005.4
20260507173043 60 348 5.2 18.2 0.00 0.20 0.00 36 1005.3
20260507171531 59 355 8.7 18.2 0.00 0.20 0.00 35 1005.4
20260507170024 59 318 7.0 11.3 0.00 0.20 0.00 41 1005.5
20260507164520 58 339 7.0 19.1 0.00 0.20 0.00 43 1005.7
20260507163015 58 275 9.6 19.1 0.00 0.20 0.00 43 1006.0
20260507161520 58 304 9.6 20.0 0.00 0.20 0.00 45 1006.2
20260507160005 57 341 6.1 13.9 0.00 0.20 0.00 46 1006.2
20260507154601 56 302 10.4 21.7 0.00 0.20 0.00 45 1006.3
20260507153056 57 360 8.7 17.4 0.00 0.20 0.00 44 1006.2
20260507151550 56 296 7.0 13.9 0.00 0.20 0.00 38 1006.5
20260507150043 57 336 6.1 13.0 0.00 0.20 0.00 34 1006.6
20260507144602 57 322 5.2 12.2 0.00 0.20 0.00 26 1006.7
20260507143034 56 317 7.0 13.0 0.00 0.20 0.00 15 1006.7
20260507141530 56 280 5.2 13.0 0.00 0.20 0.00 9 1006.6
20260507140022 56 299 3.5 11.3 0.00 0.20 0.00 1 1006.5
20260507134518 55 343 4.3 13.9 0.00 0.20 0.00 1 1006.6
20260507133014 54 348 3.5 10.4 0.00 0.20 0.20 1 1006.6
20260507131509 54 321 5.2 9.6 0.00 0.20 0.20 1 1006.8
20260507130006 53 338 6.1 10.4 0.00 0.20 0.20 1 1006.9
20260507124509 53 348 3.5 8.7 0.00 0.20 0.20 1 1007.0
20260507123005 52 46 4.3 10.4 0.00 0.20 0.20 1 1007.1
20260507121504 51 339 3.5 11.3 0.00 0.20 0.20 1 1007.2
20260507120002 50 321 1.7 8.7 0.00 0.20 0.20 1 1007.1
20260507114600 50 55 5.2 9.6 0.00 0.20 0.20 1 1007.1
20260507113054 49 334 3.5 6.1 0.00 0.20 0.20 1 1006.9
20260507111551 49 341 3.5 7.0 0.00 0.20 0.20 1 1006.9
20260507110043 48 360 3.5 5.2 0.00 0.20 0.20 1 1006.9
20260507104538 48 335 3.5 7.0 0.00 0.20 0.20 1 1007.0
20260507103036 48 328 0.9 5.2 0.00 0.20 0.20 1 1006.2
20260507101538 48 44 0.9 7.0 0.00 0.20 0.20 1 1006.2
20260507100032 48 346 3.5 6.1 0.00 0.20 0.20 1 1006.2
20260507094520 48 12 1.7 8.7 0.00 0.20 0.20 1 1006.1
20260507093019 48 355 4.3 8.7 0.00 0.20 0.20 1 1006.3
20260507091510 48 5 4.3 9.6 0.00 0.20 0.20 1 1006.4
20260507090007 48 338 4.3 10.4 0.00 0.20 0.20 1 1006.5
20260507084600 48 338 1.7 6.1 0.00 0.20 0.20 1 1006.5
20260507083055 49 10 3.5 7.8 0.01 0.20 0.20 1 1006.4
20260507081550 49 342 3.5 8.7 0.01 0.20 0.20 1 1006.3
20260507080046 49 340 2.6 7.8 0.01 0.20 0.20 1 1006.2
20260507074539 50 312 3.5 8.7 0.01 0.20 0.20 1 1006.2
20260507073035 51 317 4.3 7.8 0.00 0.19 0.19 1 1006.4
20260507071530 51 333 3.5 7.0 0.00 0.19 0.19 1 1005.8
20260507070026 51 313 4.3 10.4 0.00 0.19 0.19 1 1005.5
20260507064522 51 317 3.5 9.6 0.00 0.19 0.19 1 1005.2
20260507063016 52 300 5.2 9.6 0.00 0.19 0.19 1 1005.5
20260507061510 52 329 4.3 8.7 0.00 0.19 0.19 1 1005.5
20260507060007 52 25 4.3 9.6 0.00 0.19 0.19 1 1005.4
20260507054609 53 345 2.6 7.0 0.00 0.19 0.19 1 1005.6
20260507053058 53 336 4.3 7.0 0.00 0.19 0.19 1 1006.1
20260507051551 53 331 3.5 7.0 0.00 0.19 0.19 1 1005.7
20260507050046 54 311 3.5 6.1 0.00 0.19 0.19 1 1005.9
20260507044553 54 325 2.6 7.0 0.01 0.19 0.19 1 1005.8
20260507043035 54 355 6.1 12.2 0.01 0.19 0.19 1 1005.5
20260507041531 55 337 4.3 10.4 0.01 0.19 0.19 1 1005.6
20260507040032 56 333 3.5 9.6 0.01 0.19 0.19 1 1005.6
20260507034520 57 327 4.3 12.2 0.00 0.18 0.18 1 1005.5
20260507033015 58 349 5.2 11.3 0.00 0.18 0.18 1 1005.2
20260507031510 58 288 6.1 11.3 0.00 0.18 0.18 1 1004.9
20260507030005 58 351 6.1 15.6 0.00 0.18 0.18 1 1004.5
20260507024600 59 321 6.1 13.9 0.00 0.18 0.18 1 1004.3
20260507023056 59 337 5.2 12.2 0.00 0.18 0.18 1 1004.7
20260507021556 59 259 7.8 13.9 0.00 0.18 0.18 1 1004.4
20260507020051 59 252 3.5 9.6 0.01 0.18 0.18 1 1004.1
20260507014544 59 265 6.1 10.4 0.01 0.18 0.18 1 1004.3
20260507013045 59 225 6.1 11.3 0.01 0.18 0.18 1 1004.3
20260507011534 59 211 7.0 13.0 0.01 0.18 0.18 1 1004.3
20260507010030 59 263 5.2 11.3 0.00 0.17 0.17 1 1004.4
20260507004529 59 284 6.1 12.2 0.00 0.17 0.17 1 1004.4
20260507003026 59 265 6.1 13.9 0.00 0.17 0.17 1 1004.2
20260507001522 59 265 5.2 12.2 0.00 0.17 0.17 1 1004.2
20260507000013 59 228 7.0 17.4 0.00 0.17 0.17 1 1004.3
20260506234539 59 186 4.3 13.9 0.04 0.17 0.17 1 1004.0
20260506233031 59 282 4.3 13.0 0.05 0.17 0.17 1 1004.0
20260506231557 59 217 4.3 15.6 0.06 0.17 0.17 1 1003.9
20260506230055 59 232 7.0 13.0 0.08 0.17 0.17 1 1004.0
20260506224559 59 271 6.1 13.9 0.05 0.13 0.13 1 1004.1
20260506223040 59 232 5.2 16.5 0.05 0.12 0.12 1 1004.2
20260506221535 59 228 7.8 16.5 0.04 0.11 0.11 1 1004.2
20260506220036 59 248 5.2 16.5 0.02 0.09 0.09 1 1004.3
20260506214525 59 244 6.1 16.5 0.02 0.08 0.08 1 1004.5
20260506213021 60 218 6.1 13.9 0.01 0.07 0.07 1 1004.4
20260506211515 60 240 7.8 20.0 0.02 0.07 0.07 1 1004.7
20260506210017 60 239 8.7 18.2 0.02 0.07 0.07 1 1004.7
20260506204507 60 232 7.0 13.9 0.02 0.06 0.06 1 1005.0
20260506203035 60 227 6.1 15.6 0.02 0.06 0.06 1 1005.0
20260506201531 61 259 6.1 12.2 0.02 0.05 0.05 1 1005.0
20260506200023 62 239 7.0 15.6 0.03 0.05 0.05 1 1005.0
20260506194519 62 239 6.1 13.9 0.03 0.04 0.04 1 1005.0
20260506193015 63 226 7.8 13.9 0.04 0.04 0.04 1 1005.1